Regional Weather Roundup
Issued by NWS

Home | Current Version | Previous Version | Graphics & Text | Print | Product List | Glossary On
Versions: 1 2 3 4 5 6 7 8 9 10 11 12 13 14 15 16 17 18 19 20 21 22 23 24 25 26 27
000
ASUS45 KCYS 300210
RWRWY

WYOMING REGIONAL WEATHER ROUNDUP
NATIONAL WEATHER SERVICE CHEYENNE WY
800 PM MDT MON AUG 29 2016

NOTE:  "FAIR" INDICATES FEW OR NO CLOUDS BELOW 12,000 FEET
WITH NO SIGNIFICANT WEATHER AND/OR OBSTRUCTIONS TO VISIBILITY.

WYZ001-300300-
YELLOWSTONE NATIONAL PARK

CITY           SKY/WX    TMP DP  RH WIND       PRES   REMARKS
LK YELLOWSTONE   N/A     61  34  36 CALM      30.43R
W YELLOWSTONE  NOT AVBL

$$
WYZ002>013-054>058-071-098>099-300300-
NORTHERN WYOMING

CITY           SKY/WX    TMP DP  RH WIND       PRES   REMARKS
JACKSON        CLEAR     75  21  13 W12       30.28
CODY           FAIR      77  37  24 SW6       30.24R
GREYBULL       FAIR      83  36  18 CALM      30.13S
WORLAND        FAIR      82  33  17 SE12      30.15R
SHERIDAN       FAIR      77  47  34 CALM      30.18S
BUFFALO        FAIR      77  39  25 W6        30.28R
GILLETTE       FAIR      76  46  34 S13       30.23R
HULETT         FAIR      72  50  46 E14       30.26S
NEWCASTLE      FAIR      72  48  43 E13G20    30.26R

$$
WYZ014>020-022>026-101>103-300300-
CENTRAL WYOMING

CITY           SKY/WX    TMP DP  RH WIND       PRES   REMARKS
BIG PINEY      FAIR      71  27  19 S8        30.35S
PINEDALE       FAIR      70  30  23 E9        30.37R
DUBOIS         FAIR      66  28  24 S7        30.38R
LANDER         FAIR      76  34  21 SW5       30.27R
RIVERTON       FAIR      77  32  19 E7        30.25S
CASPER         FAIR      76  40  27 E10       30.28R
DOUGLAS        FAIR      75  43  31 E13       30.29R

$$
WYZ021-027>030-104>119-300300-
SOUTHERN WYOMING

CITY           SKY/WX    TMP DP  RH WIND       PRES   REMARKS
EVANSTON       FAIR      73  21  14 E6        30.34S
FORT BRIDGER   FAIR      75  19  12 NE6       30.37S
ROCK SPRINGS   FAIR      71  22  15 NE7       30.32R
DIXON          FAIR      69  35  28 E5        30.34S
RAWLINS        FAIR      70  31  23 NE10      30.37R
SARATOGA       FAIR      64  34  32 SE8       30.39R
LARAMIE        FAIR      63  40  42 SE10      30.43R
CHEYENNE       FAIR      67  44  43 S6        30.38R
TORRINGTON     FAIR      73  57  57 E9        30.25R
PINE BLUFFS    FAIR      68  54  60 S9        30.33R

$$




USA.gov is the U.S. government's official web portal to all federal, state and local government web resources and services.